Temperature
16 16 16 16 15 15 15 15 15 15 15 15 14 14 14 14 14 14 14 14 14 14 14 14 14 14 14 14 14 14 13 13 13 13 12 12 12 12 12 12 11 11 12
16 16 16 16 15 15 15 15 15 15 15 15 15 15 15 14 14 14 14 14 14 14 14 14 14 14 14 14 14 13 13 13 13 13 12 12 12 12 12 12 11 11 11
16 16 16 16 15 15 15 15 15 15 15 15 15 15 15 15 14 14 14 14 14 14 14 14 14 14 14 14 14 13 13 13 13 13 12 12 12 12 12 12 11 11 11
16 16 16 16 15 15 15 15 15 15 15 15 15 15 15 15 14 14 14 14 14 14 14 14 14 14 14 13 13 13 13 13 13 12 12 12 12 12 11 11 11 11 11
16 16 16 16 15 15 15 15 15 15 15 15 15 15 15 14 14 14 14 14 14 14 14 14 14 14 14 13 13 13 13 13 12 12 12 12 11 11 11 11 11 11 11
16 16 16 16 15 15 15 15 15 15 15 15 15 15 14 15 15 14 14 14 14 14 13 13 14 14 14 14 13 13 13 13 12 12 12 12 11 11 11 11 11 11 10
16 16 15 15 15 15 15 15 15 15 15 15 15 15 14 14 14 14 14 14 14 14 13 13 13 13 13 13 13 13 13 13 13 12 12 11 11 11 11 11 11 11 10
16 16 15 15 15 15 15 15 15 15 15 15 15 15 15 14 14 14 14 14 14 13 13 13 13 13 13 13 13 13 13 13 12 12 12 12 12 12 11 11 11 11 10
16 15 15 15 15 15 15 15 15 15 15 15 15 15 15 14 14 14 14 14 14 13 13 13 13 13 13 13 12 12 12 12 12 12 12 12 12 11 11 11 11 10 10
15 15 15 15 15 15 15 15 14 14 14 14 14 14 14 14 14 14 14 13 13 13 13 13 13 13 13 13 12 12 12 12 12 12 12 11 11 11 11 11 10 10 10
15 15 15 15 15 15 15 14 14 14 14 14 14 14 14 14 14 14 14 13 13 13 13 13 13 13 13 13 12 12 12 12 11 11 11 11 11 11 11 11 10 10 9
15 15 15 15 15 15 15 14 14 14 14 14 14 14 14 14 14 14 14 13 13 13 13 13 13 13 13 12 12 12 12 11 11 11 11 11 10 10 10 10 10 10 10
15 15 14 14 15 15 14 14 14 14 14 14 14 13 13 13 13 13 13 13 13 13 13 13 12 12 12 12 12 12 12 11 11 11 10 10 10 10 10 10 10 10 9
14 14 14 14 14 14 14 14 14 13 13 13 13 13 13 13 13 13 13 13 13 13 12 12 12 12 12 12 12 11 11 11 11 10 10 10 10 10 10 10 9 9 9
14 14 14 14 14 14 14 14 14 14 13 14 14 13 13 13 13 13 13 13 13 12 12 12 12 11 11 11 11 11 11 10 10 10 10 9 9 9 9 9 9 9 8
14 13 13 13 13 13 13 13 13 13 14 14 13 13 13 13 13 13 13 12 12 12 12 11 11 11 11 11 10 10 10 10 10 10 9 9 9 9 9 9 8 8 8
13 13 13 13 13 13 13 13 13 13 13 13 13 13 13 13 13 12 12 12 12 11 11 11 11 11 10 10 10 10 10 10 10 9 9 9 9 9 8 8 8 8 7
13 13 13 13 13 12 12 12 12 13 12 12 12 12 12 12 12 12 12 11 11 11 11 11 11 10 10 10 10 10 9 9 9 9 9 9 9 8 8 8 7 7 7
13 13 13 13 12 12 12 12 12 12 12 12 12 12 12 12 11 11 11 11 11 11 11 10 10 10 10 10 9 9 9 9 9 9 9 9 8 8 8 7 7 7 6
13 13 12 12 12 12 12 12 11 11 11 11 11 11 11 11 11 11 10 10 10 10 10 10 10 10 9 9 9 9 9 9 9 9 8 8 8 8 7 7 7 6 6
12 12 12 12 12 12 11 11 11 11 11 11 11 11 11 11 10 10 10 10 10 10 10 9 9 9 9 9 9 9 9 8 8 8 8 8 7 7 7 6 6 6 6
12 12 12 12 11 11 11 11 11 11 11 10 10 10 10 10 10 10 10 10 9 9 9 9 9 9 9 9 8 8 8 8 8 8 7 7 7 7 6 6 6 6 5
12 12 12 11 11 11 11 11 11 10 10 10 10 10 10 10 10 9 9 9 9 9 9 9 9 8 8 8 8 8 8 8 7 7 7 7 6 6 6 5 5 5 5
11 11 11 11 11 11 11 10 10 10 10 10 10 10 10 9 9 9 9 9 9 8 8 8 8 8 8 8 8 8 7 7 7 7 6 6 6 6 5 5 5 5 4
11 11 11 11 11 10 10 10 10 10 10 9 9 9 9 9 9 8 8 8 8 8 8 8 8 8 8 7 7 7 7 7 7 6 6 6 6 5 5 5 5 4 4
10 11 11 10 10 10 10 10 10 9 9 9 9 9 9 8 8 8 8 8 8 8 8 7 7 7 7 7 7 7 7 6 6 6 6 5 5 5 5 4 4 4 4
Wind_Speed
7 6 6 5 5 4 3 3 3 3 3 3 2 2 2 3 2 2 1 1 1 1 2 2 2 1 1 1 1 1 0 0 2 2 2 2 2 2 2 2 2 3 5
7 7 6 5 5 5 4 4 4 3 2 2 3 3 3 2 2 2 2 1 1 0 1 2 2 2 2 1 1 1 1 1 1 2 2 2 2 2 1 1 1 2 3
7 7 7 6 6 6 5 5 4 3 3 3 3 3 3 3 3 2 2 2 1 1 1 1 1 2 2 2 2 2 2 2 1 2 2 2 1 1 1 0 1 1 2
7 8 7 7 7 7 6 5 5 4 4 4 3 3 3 3 3 3 3 2 2 1 1 1 1 2 2 2 2 2 2 2 2 2 2 2 1 1 1 0 0 0 1
7 8 7 7 7 6 6 6 6 5 5 4 4 4 3 3 2 3 3 3 2 2 2 2 2 2 3 1 1 2 2 2 2 2 1 1 1 1 1 1 1 1 1
7 7 7 7 7 7 6 6 6 6 5 5 5 4 4 3 2 1 3 4 3 3 3 3 3 4 4 3 2 2 1 1 2 2 1 1 1 1 1 1 2 2 1
7 7 7 7 7 7 6 6 6 6 6 5 5 5 5 4 5 4 3 3 3 3 3 3 3 3 5 5 6 5 2 1 2 2 1 1 2 1 2 2 1 2 2
6 6 6 6 6 6 6 7 7 6 6 6 6 5 5 5 7 6 5 5 3 3 3 3 4 4 4 5 5 5 4 3 3 3 2 2 1 1 2 2 2 2 2
7 6 6 7 7 7 7 7 6 6 6 6 6 6 6 6 8 8 7 5 4 4 4 4 4 4 4 4 5 5 4 4 3 2 1 1 3 3 1 2 2 2 3
7 6 6 7 8 8 8 8 6 6 6 6 6 6 6 7 8 9 9 5 5 5 4 3 2 2 4 5 6 5 5 4 4 4 4 4 3 2 3 3 3 3 3
6 5 6 6 7 7 7 6 6 6 6 6 6 5 6 6 7 9 9 6 6 5 4 4 3 5 5 5 5 4 3 3 3 3 2 2 2 2 3 3 3 3 4
5 5 5 5 5 5 6 6 6 6 6 6 6 5 4 5 5 7 8 7 5 5 4 4 3 7 6 5 4 2 2 3 3 3 3 3 3 3 2 2 3 3 3
5 5 5 5 5 5 6 6 6 6 6 6 6 6 5 4 4 6 7 7 5 4 3 2 3 6 6 4 4 4 5 4 4 4 4 4 3 3 2 2 2 3 3
6 5 5 5 5 5 5 6 6 6 6 7 7 7 5 5 5 5 5 5 6 5 4 4 5 4 4 2 3 4 4 4 4 4 4 3 2 2 2 2 2 3 3
6 5 5 5 5 5 5 4 6 6 6 7 7 7 7 6 6 6 6 6 5 5 5 4 4 4 4 4 4 4 4 4 4 4 4 3 3 3 3 3 3 3 4
6 5 5 5 5 5 4 3 0 1 1 2 3 4 4 4 7 8 6 5 6 6 5 4 4 4 5 4 4 4 4 4 4 4 4 4 4 4 3 3 3 4 4
6 5 5 5 5 5 5 5 4 1 1 2 3 4 4 6 8 8 8 7 6 7 5 5 4 4 4 4 4 4 4 4 3 4 4 4 4 4 4 4 4 4 4
6 5 5 5 5 5 6 5 5 5 4 2 3 5 6 6 7 8 9 7 4 5 5 5 5 4 4 4 4 4 3 3 3 3 4 4 4 4 4 4 4 5 5
6 5 5 5 5 5 5 5 5 5 4 4 3 4 6 6 6 6 7 5 5 5 5 5 4 4 4 4 4 3 3 3 3 3 4 4 4 4 4 5 4 5 5
6 6 6 5 5 5 5 5 5 5 5 5 4 4 5 5 4 4 5 4 4 4 4 4 4 4 4 3 3 3 3 3 3 4 4 4 4 4 5 5 5 5 5
5 6 6 6 6 6 6 6 6 5 5 5 4 5 6 6 5 5 4 4 4 4 3 3 3 3 3 3 3 4 4 3 3 3 4 4 4 3 4 4 4 4 4
5 5 6 6 6 6 6 6 5 5 5 5 4 5 6 5 4 4 4 3 3 3 3 3 3 3 3 3 3 3 3 3 3 3 3 3 3 4 3 4 4 4 4
6 6 6 6 6 6 6 6 5 6 5 5 5 5 5 4 4 4 3 3 3 2 2 3 3 3 2 2 3 3 3 3 3 3 3 3 3 4 3 4 4 4 4
6 6 6 6 5 6 6 6 6 6 6 5 5 5 5 4 4 4 3 3 3 2 2 2 2 2 2 2 2 2 2 2 3 3 4 3 3 3 3 3 4 4 4
6 6 6 6 6 6 6 6 6 6 5 5 5 5 5 4 4 3 2 2 3 2 2 2 1 1 1 2 1 1 0 1 2 2 3 3 3 3 3 3 3 3 4
5 5 5 5 5 6 6 6 6 6 6 5 5 5 5 5 4 3 3 3 3 2 2 2 1 1 1 1 1 1 1 1 1 2 2 2 2 2 3 3 3 3 4
Wind_Direction
193 192 194 192 193 191 193 185 193 191 186 184 194 184 178 179 171 160 187 183 192 170 167 164 166 163 167 159 169 167 151 117 131 115 109 114 118 91 85 68 61 61 69
197 196 198 193 197 198 191 192 199 199 195 192 185 187 189 189 185 174 179 188 192 176 149 156 159 152 165 162 170 168 141 142 147 133 136 129 113 97 81 71 75 67 66
198 201 201 201 205 205 201 197 204 203 203 194 192 192 190 193 191 190 187 187 185 186 178 174 166 162 166 156 171 153 138 136 147 161 137 122 133 111 124 127 101 59 68
196 202 203 205 208 211 210 206 209 208 207 205 199 194 196 199 201 196 193 189 190 180 169 178 184 178 184 174 168 164 161 155 154 162 158 149 152 137 219 241 176 99 38
198 203 205 208 207 210 209 209 212 212 209 210 209 208 202 205 213 211 195 198 197 189 186 179 162 105 55 89 160 169 175 182 173 174 177 176 168 168 233 268 288 282 140
201 204 201 203 203 206 209 209 210 211 213 211 215 213 208 207 160 248 250 208 209 209 206 197 175 161 149 137 89 52 11 223 191 183 199 212 223 218 247 273 286 285 277
205 206 201 202 202 204 204 206 206 208 210 210 213 212 211 194 164 180 228 237 228 225 221 205 189 181 181 181 172 176 176 337 317 268 238 257 259 255 246 254 277 289 299
205 205 204 204 205 206 205 205 207 208 208 211 212 210 210 198 173 180 193 207 214 219 224 221 208 199 197 195 182 179 181 184 203 227 247 267 294 284 253 273 282 261 257
209 207 208 207 207 209 212 213 212 212 213 214 212 210 212 204 181 185 197 199 204 211 216 223 222 211 155 193 200 196 190 180 151 162 9 29 39 28 325 246 252 258 271
218 216 214 213 210 210 213 216 213 211 216 217 216 217 217 215 181 184 204 207 208 207 208 210 207 231 161 187 208 210 211 204 191 180 188 207 219 202 204 239 258 266 281
217 215 215 216 214 212 212 212 208 207 211 216 216 214 215 218 186 183 201 215 213 211 210 210 197 170 177 193 226 228 230 230 213 211 217 213 209 212 204 219 244 260 273
210 211 214 213 209 205 204 208 207 203 203 209 212 210 209 210 205 187 191 217 238 215 214 211 182 159 171 188 207 197 195 223 225 223 231 237 237 230 221 214 221 234 262
206 210 215 212 204 200 198 200 203 205 207 210 211 210 206 201 190 178 186 197 215 218 211 153 150 162 171 182 193 196 201 216 220 226 233 238 239 241 224 214 226 231 252
210 214 215 213 209 202 201 202 204 206 208 211 212 209 205 199 198 189 185 181 177 193 199 160 152 162 190 197 189 200 215 222 225 232 240 238 229 224 224 227 232 232 245
213 215 216 215 211 205 204 210 212 215 218 212 210 207 201 206 199 186 190 190 190 190 186 195 203 199 201 207 215 218 217 218 219 229 234 232 226 227 231 230 233 237 247
214 215 215 215 209 202 197 200 153 236 190 225 235 215 202 182 156 163 171 166 159 163 178 197 206 211 215 217 217 217 217 222 226 226 226 227 229 232 232 226 225 236 251
216 213 211 212 206 201 198 198 194 173 109 159 191 191 184 161 157 159 161 159 161 166 185 202 206 210 216 221 222 224 225 225 223 223 226 228 231 235 235 235 235 241 252
218 210 206 208 207 203 202 201 197 190 182 183 178 172 170 164 161 160 156 150 163 183 203 208 206 208 212 215 219 221 222 220 219 221 225 230 230 233 237 240 240 247 252
214 209 206 207 203 200 199 198 196 192 189 184 168 159 156 152 151 159 165 183 191 192 199 204 207 210 213 213 214 215 216 220 222 219 222 227 232 234 240 245 247 245 251
213 202 199 201 200 196 195 196 195 191 188 187 184 173 161 166 171 171 183 189 192 196 195 197 202 208 212 213 211 209 211 218 229 229 230 232 233 236 240 244 248 250 252
208 200 190 197 201 198 197 197 194 190 187 186 188 172 164 175 178 180 180 185 192 199 200 200 200 203 210 213 213 212 215 224 226 232 231 232 234 240 247 250 253 254 258
205 202 202 202 199 197 196 194 189 186 184 177 166 152 155 172 172 175 176 181 189 196 198 197 201 207 211 215 220 223 228 233 234 232 235 232 232 236 239 242 247 253 257
203 202 200 200 197 185 184 185 183 182 179 174 167 163 167 176 173 174 175 177 177 182 182 186 195 203 207 211 215 219 231 240 243 242 239 235 233 232 234 236 241 249 255
201 201 197 192 188 186 185 182 181 178 174 170 168 166 166 168 167 167 171 170 169 170 170 177 190 202 210 203 204 214 230 248 248 245 239 238 240 241 238 240 247 250 253
200 199 195 188 184 183 179 174 171 169 167 166 164 161 158 155 153 154 159 164 166 166 166 164 160 173 212 201 189 201 227 233 246 256 245 241 245 250 254 254 256 262 262
196 193 189 184 181 177 173 171 169 166 165 163 162 159 156 152 149 149 153 159 161 159 157 156 157 148 149 166 149 114 105 164 241 262 252 249 246 252 258 258 262 262 268
Height
1550 1551 1552 1553 1554 1555 1555 1556 1556 1556 1557 1557 1557 1558 1558 1558 1557 1557 1557 1557 1557 1557 1557 1557 1557 1557 1557 1557 1557 1557 1558 1558 1558 1558 1558 1556 1555 1555 1553 1552 1551 1550 1548
1548 1549 1551 1552 1553 1554 1554 1555 1555 1556 1556 1556 1556 1557 1557 1557 1557 1557 1557 1556 1557 1556 1556 1556 1556 1556 1556 1556 1557 1557 1557 1557 1558 1558 1557 1556 1556 1555 1553 1552 1552 1550 1549
1545 1547 1548 1550 1551 1552 1553 1554 1554 1555 1555 1555 1555 1556 1556 1556 1556 1556 1556 1556 1556 1556 1556 1556 1556 1556 1556 1556 1556 1556 1556 1557 1557 1557 1557 1556 1555 1554 1553 1553 1552 1551 1550
1543 1544 1546 1547 1549 1550 1551 1552 1553 1553 1553 1554 1554 1554 1555 1555 1555 1555 1555 1555 1555 1555 1555 1555 1555 1556 1555 1555 1555 1556 1556 1556 1556 1556 1556 1555 1555 1554 1553 1553 1552 1551 1550
1540 1542 1543 1545 1546 1547 1548 1549 1550 1551 1552 1552 1553 1553 1553 1553 1553 1554 1554 1554 1554 1554 1554 1554 1554 1554 1554 1555 1555 1555 1555 1555 1555 1555 1555 1555 1554 1553 1553 1552 1552 1551 1549
1538 1539 1540 1541 1543 1544 1546 1547 1548 1549 1549 1550 1550 1551 1551 1551 1551 1552 1552 1553 1553 1553 1553 1553 1553 1553 1553 1553 1553 1553 1554 1554 1554 1554 1554 1554 1554 1553 1552 1551 1551 1551 1550
1535 1536 1537 1538 1540 1541 1543 1544 1545 1546 1547 1547 1548 1548 1549 1549 1550 1550 1550 1551 1551 1552 1552 1552 1552 1551 1551 1552 1552 1552 1552 1552 1553 1553 1553 1553 1553 1552 1551 1550 1550 1549 1549
1532 1533 1534 1535 1536 1538 1539 1540 1541 1542 1543 1544 1545 1546 1546 1547 1547 1548 1548 1549 1549 1549 1550 1550 1550 1550 1550 1551 1551 1551 1551 1551 1551 1551 1551 1551 1551 1550 1549 1549 1549 1548 1547
1529 1529 1530 1531 1532 1534 1535 1536 1538 1539 1540 1541 1542 1543 1543 1544 1544 1545 1546 1547 1547 1547 1548 1548 1548 1549 1548 1549 1549 1550 1549 1549 1549 1549 1549 1549 1548 1548 1547 1547 1547 1546 1546
1525 1526 1527 1528 1529 1529 1531 1532 1534 1535 1536 1537 1538 1539 1540 1541 1542 1542 1543 1544 1544 1545 1545 1545 1545 1546 1546 1547 1547 1548 1548 1548 1548 1547 1547 1547 1546 1546 1545 1545 1544 1544 1544
1521 1522 1523 1524 1525 1526 1527 1528 1530 1531 1532 1534 1535 1535 1536 1537 1538 1539 1540 1541 1542 1542 1542 1543 1543 1543 1543 1544 1544 1545 1545 1546 1546 1545 1545 1544 1544 1543 1543 1542 1542 1541 1541
1517 1518 1519 1520 1521 1522 1523 1524 1526 1527 1528 1529 1531 1531 1532 1533 1534 1535 1536 1537 1538 1539 1540 1540 1540 1540 1540 1541 1541 1541 1542 1543 1543 1542 1542 1542 1541 1541 1540 1539 1539 1538 1537
1513 1514 1515 1516 1517 1518 1519 1520 1521 1523 1524 1525 1527 1527 1528 1529 1530 1531 1532 1533 1534 1535 1536 1536 1537 1537 1537 1538 1538 1538 1539 1539 1539 1539 1539 1539 1538 1538 1537 1536 1535 1535 1534
1509 1510 1511 1512 1513 1514 1515 1516 1517 1518 1520 1521 1522 1523 1524 1525 1526 1527 1528 1529 1530 1531 1532 1532 1533 1533 1534 1534 1534 1535 1535 1535 1535 1535 1535 1535 1534 1534 1533 1533 1532 1531 1530
1505 1506 1507 1508 1509 1510 1510 1511 1513 1514 1515 1516 1517 1519 1520 1521 1522 1523 1524 1525 1526 1527 1528 1529 1529 1530 1530 1530 1530 1531 1531 1531 1531 1531 1531 1531 1531 1530 1530 1529 1528 1528 1527
1501 1502 1503 1504 1504 1505 1506 1507 1508 1510 1511 1512 1513 1515 1516 1517 1518 1519 1521 1522 1523 1524 1524 1525 1525 1526 1526 1526 1526 1527 1527 1527 1527 1527 1527 1527 1527 1527 1526 1525 1524 1523 1523
1496 1497 1498 1499 1500 1500 1501 1502 1503 1504 1506 1507 1508 1510 1512 1513 1514 1515 1517 1518 1519 1519 1520 1520 1521 1522 1522 1522 1522 1523 1523 1523 1523 1523 1523 1523 1522 1522 1522 1521 1520 1519 1518
1493 1493 1494 1495 1496 1497 1497 1498 1499 1500 1501 1502 1504 1506 1507 1509 1510 1512 1513 1514 1514 1515 1515 1516 1516 1517 1518 1518 1518 1519 1519 1519 1519 1519 1518 1518 1518 1517 1517 1516 1516 1515 1514
1488 1489 1490 1491 1492 1493 1494 1495 1496 1497 1498 1499 1500 1502 1504 1505 1506 1508 1508 1509 1510 1510 1511 1512 1513 1513 1514 1515 1515 1515 1515 1515 1515 1514 1514 1514 1513 1513 1512 1512 1511 1510 1510
1484 1485 1486 1487 1488 1489 1490 1491 1492 1493 1494 1496 1497 1498 1500 1501 1502 1503 1504 1505 1506 1506 1507 1508 1509 1510 1510 1511 1511 1511 1511 1511 1510 1510 1509 1509 1508 1508 1508 1507 1507 1506 1505
1479 1480 1482 1483 1484 1485 1486 1487 1489 1490 1491 1492 1494 1496 1497 1498 1499 1500 1501 1501 1502 1503 1504 1505 1505 1506 1506 1506 1507 1506 1506 1506 1506 1505 1505 1504 1504 1503 1503 1502 1502 1501 1500
1475 1476 1477 1478 1480 1481 1482 1484 1486 1487 1488 1490 1491 1493 1494 1495 1496 1497 1498 1498 1499 1500 1501 1501 1502 1502 1502 1502 1502 1502 1502 1502 1501 1501 1500 1500 1499 1499 1498 1498 1497 1496 1496
1470 1472 1473 1474 1476 1477 1479 1480 1482 1484 1485 1487 1488 1489 1490 1492 1493 1494 1495 1495 1496 1496 1497 1497 1498 1498 1498 1498 1498 1498 1498 1497 1497 1496 1496 1495 1495 1494 1494 1493 1492 1492 1491
1466 1467 1469 1470 1472 1473 1475 1477 1478 1480 1482 1484 1485 1486 1488 1489 1490 1491 1491 1492 1492 1493 1493 1494 1494 1494 1494 1494 1494 1493 1493 1493 1492 1492 1491 1491 1490 1490 1489 1489 1488 1487 1486
1462 1463 1465 1466 1468 1470 1472 1473 1475 1477 1479 1480 1482 1483 1485 1486 1486 1487 1488 1489 1489 1490 1490 1490 1491 1491 1490 1490 1490 1489 1489 1489 1488 1488 1487 1487 1486 1485 1485 1484 1483 1482 1481
1458 1460 1461 1463 1465 1466 1468 1470 1472 1474 1475 1477 1479 1480 1482 1483 1484 1484 1485 1486 1486 1486 1487 1487 1487 1487 1487 1486 1486 1486 1485 1485 1485 1484 1484 1483 1482 1481 1481 1480 1479 1478 1477